Regional Weather Roundup
Issued by NWS Spokane, WA

Home | Current Version | Previous Version | Text Only | Print | Product List | Glossary On
Versions: 1 2 3 4 5 6 7 8 9 10 11 12 13 14 15 16 17 18 19 20 21 22 23 24 25 26 27 28 29 30 31 32 33 34 35 36 37 38 39 40 41 42 43 44 45 46 47 48 49 50
951
NZUS01 KOTX 111710
RWROTX
EASTERN WASHINGTON/NORTHERN IDAHO ROUNDUP
NATIONAL WEATHER SERVICE, SPOKANE WA
900 AM PST THU FEB 11 2016

Note: "fair" indicated few or no clouds below 12,000 feet with no
significant weather and/or obstructions to visibility.

...NORTHEAST WASHINGTON AND NORTHERN IDAHO PANHANDLE...

CITY           SKY/WX    TMP DP  RH WIND       PRES   REMARKS
SPOKANE INTL   FOG       33  33 100 NE7       30.32R VSB 1/16WCI  27
SPOKANE DOWNTO FOG       35  33  92 CALM      30.35R VSB 1/4
COEUR D ALENE  CLOUDY    34  32  93 NE13      30.32R VSB 3/4 WCI  25
DEER PARK      CLOUDY    37  34  89 CALM      30.34R
SANDPOINT      CLOUDY    32  32 100 CALM      30.36S FOG
BONNERS FERRY  CLOUDY    32  30  93 CALM      30.36R

...SOUTHEAST WASHINGTON AND SOUTHERN IDAHO PANHANDLE...

CITY           SKY/WX    TMP DP  RH WIND       PRES   REMARKS
WALLA WALLA    CLOUDY    39  37  92 S10       30.28F FOG
PULLMAN/MOSCOW CLOUDY    43  35  73 E7        30.31F
LEWISTON       CLOUDY    46  36  68 E9        30.32R
LOWELL           N/A     38  35  89 CALM      30.40S

...COLUMBIA BASIN...

CITY           SKY/WX    TMP DP  RH WIND       PRES   REMARKS
EPHRATA        CLOUDY    40  37  89 N7        30.32R
MOSES LAKE     CLOUDY    38  34  85 N9        30.33R
TRI CITIES     CLOUDY    42  37  82 NW6       30.33S
HERMISTON      CLOUDY    47  39  74 NE9       30.29R
PENDLETON      CLOUDY    44  38  79 N5        30.25R

...EAST SLOPES CASCADES...

CITY           SKY/WX    TMP DP  RH WIND       PRES   REMARKS
THE DALLES     CLOUDY    45  40  82 CALM      30.30R
YAKIMA         LGT RAIN  42  37  82 W3        30.31R
ELLENSBURG     LGT RAIN  34  29  82 W3        30.30R
WENATCHEE      CLOUDY    35  31  85 CALM      30.34R
OMAK           PTSUNNY   34  31  88 W3        30.37S

...SOUTHERN BRITISH COLUMBIA...

CITY           SKY/WX    TMP DP  RH WIND       PRES   REMARKS
CASTLEGAR      CLOUDY    34  34 100 E2        30.38R FOG

...WESTERN MONTANA...

CITY           SKY/WX    TMP DP  RH WIND       PRES   REMARKS
MISSOULA       MOSUNNY   34  30  85 CALM      30.32R

...NEIGHBORING CITIES...

CITY           SKY/WX    TMP DP  RH WIND       PRES   REMARKS
SEATTLE        CLOUDY    48  46  93 SE5       30.18S
CALGARY        PTSUNNY   39  34  81 NW8       30.15R



USA.gov is the U.S. government's official web portal to all federal, state and local government web resources and services.